Location: Tr�vern
(48.0333°N, 4.6000°W)
Time: 08:45:40
(UTC+00:00)

Cosmos 1805 Rocket - Pass Details

Date: 14 July 2020
Orbit: 607 x 629 km, 82.5° (Epoch: 04 August)

Event Time Altitude Azimuth Distance (km) Brightness Sun altitude
Exits shadow 00:39:36 36° 239° (WSW) 974 4.2 -20.2°
Maximum altitude 00:40:50 47° 284° (WNW) 817 4.2 -20.2°
Drops below altitude 10° 00:45:05 10° 359° (N) 1,983 7.3 -20.2°
Sets 00:47:24 0° 5° (N) 2,897 8.6 -20.1°
